Weather History for Window Rock, AZ

Change the Weather History Date:

Tuesday, November 22, 2011

  Actual Average Record
Temperature  
Mean Temperature 36 °F -  
Max Temperature 52 °F 49 °F 66 °F (1954)
Min Temperature 19 °F 22 °F 4 °F (1957)
Degree Days  
Heating Degree Days 30    
Moisture  
Dew Point 25 °F    
Average Humidity 76    
Maximum Humidity 96    
Minimum Humidity 38    
Precipitation  
Precipitation 0.00 in - - ()
Sea Level Pressure  
Sea Level Pressure 30.30 in    
Wind  
Wind Speed 1 mph (SE)    
Max Wind Speed 6 mph    
Max Gust Speed -    
Visibility 9 miles    
Events      
Averages and records for this station are not official NWS values.
T = Trace of Precipitation, MM = Missing Value Source: NWS Daily Summary

Daily Weather History Graph

Daily Weather History Graph

Search for Another Location

Airport:

Trip Planner

Search our weather history database for the weather conditions in past years. The results will help you decide how hot, cold, wet, or windy it might be!

Date:

Astronomy

Nov. 22, 2011 Rise Set
Actual Time 6:58 AM MST 5:05 PM MST
Civil Twilight 6:31 AM MST 5:33 PM MST
Nautical Twilight 6:00 AM MST 6:04 PM MST
Astronomical Twilight 5:29 AM MST 6:34 PM MST
Moon 3:57 AM MST (11/22) 3:04 PM MST (11/22)
Length of Visible Light 11h 01m
Length of Day
10h 06m
Waning Crescent, 9% of the Moon is Illuminated
Nov 22
Waning Crescent
Nov 24
New
Dec 2
First Quarter
Dec 10
Full
Dec 17
Last Quarter

Hourly Weather History & Observations

Time (MST) Temp. Windchill Dew Point Humidity Pressure Visibility Wind Dir Wind Speed Gust Speed Precip Events Conditions
12:53 AM 25.0 °F - 23.0 °F 92% 30.22 in 9.0 mi Calm Calm - N/A   Clear
1:28 AM 23.0 °F - 21.2 °F 93% 30.28 in 8.0 mi Calm Calm - N/A   Scattered Clouds
1:53 AM 25.0 °F 20.7 °F 23.0 °F 92% 30.21 in 7.0 mi ENE 3.5 mph - N/A   Partly Cloudy
2:53 AM 21.0 °F - 19.9 °F 96% 30.25 in 9.0 mi Calm Calm - N/A   Clear
3:53 AM 21.9 °F - 19.9 °F 92% 30.26 in 7.0 mi Calm Calm - N/A   Clear
4:53 AM 21.9 °F - 19.9 °F 92% 30.26 in 9.0 mi Calm Calm - N/A   Clear
5:53 AM 19.0 °F - 18.0 °F 96% 30.32 in 8.0 mi Calm Calm - N/A   Clear
6:53 AM 19.9 °F - 18.0 °F 92% 30.34 in 8.0 mi Calm Calm - N/A   Clear
7:53 AM 21.9 °F - 19.9 °F 92% 30.38 in 8.0 mi Calm Calm - N/A   Clear
8:53 AM 30.0 °F - 27.0 °F 88% 30.36 in 10.0 mi Calm Calm - N/A   Clear
9:53 AM 37.0 °F - 30.9 °F 79% 30.35 in 10.0 mi Calm Calm - N/A   Clear
10:53 AM 45.0 °F - 28.9 °F 53% 30.31 in 10.0 mi Calm Calm - N/A   Clear
11:53 AM 46.9 °F - 28.0 °F 48% 30.29 in 10.0 mi Calm Calm - N/A   Clear
12:53 PM 48.9 °F - 28.0 °F 44% 30.25 in 10.0 mi South 5.8 mph - N/A   Clear
1:53 PM 51.1 °F - 28.0 °F 41% 30.23 in 10.0 mi South 5.8 mph - N/A   Clear
2:53 PM 52.0 °F - 27.0 °F 38% 30.24 in 10.0 mi Variable 3.5 mph - N/A   Clear
3:53 PM 52.0 °F - 27.0 °F 38% 30.24 in 10.0 mi South 5.8 mph - N/A   Clear
4:53 PM 46.9 °F - 30.9 °F 54% 30.27 in 10.0 mi SSE 5.8 mph - N/A   Clear
5:53 PM 42.1 °F 38.4 °F 30.0 °F 62% 30.32 in 10.0 mi East 5.8 mph - N/A   Clear
6:53 PM 39.9 °F 36.7 °F 30.0 °F 68% 30.35 in 10.0 mi East 4.6 mph - N/A   Clear
7:53 PM 32.0 °F - 27.0 °F 82% 30.40 in 10.0 mi Calm Calm - N/A   Clear
8:53 PM 28.0 °F - 25.0 °F 88% 30.40 in 10.0 mi Calm Calm - N/A   Clear
9:53 PM 27.0 °F - 24.1 °F 89% 30.38 in 10.0 mi Calm Calm - N/A   Clear
10:53 PM 25.0 °F - 21.9 °F 88% 30.36 in 10.0 mi Calm Calm - N/A   Clear
11:53 PM 23.0 °F - 21.0 °F 92% 30.35 in 10.0 mi Calm Calm - N/A   Clear